Location: Unspecified
(58.7730°N, 5.8460°E)
Time: 15:51:36
(UTC+02:00)

Cosmos 1674 - Visible Passes

Search period start: 30 September 2014 00:00
Search period end: 10 October 2014 00:00
Orbit: 515 x 542 km, 82.5° (Epoch: 29 September)

Date Brightness Start Highest point End Pass type
(mag) Time Alt. Az. Time Alt. Az. Time Alt. Az.
30 Sep 3.5 20:58:12 10° NNW 21:02:06 55° W 21:05:59 10° S visible
01 Oct 3.4 20:47:04 10° NNW 20:50:59 59° W 20:54:54 10° S visible
02 Oct 3.3 20:35:55 10° NNW 20:39:52 64° W 20:43:48 10° S visible
02 Oct 6.1 22:14:13 10° WNW 22:15:02 11° WNW 22:15:51 10° W visible
03 Oct 3.2 20:24:46 10° NNW 20:28:44 68° W 20:32:41 10° S visible
03 Oct 6.1 22:02:42 10° WNW 22:03:56 11° W 22:05:11 10° W visible
04 Oct 3.1 20:13:36 10° NNW 20:17:35 73° W 20:21:33 10° S visible
04 Oct 6.1 21:51:17 10° WNW 21:52:50 12° W 21:54:23 10° WSW visible
05 Oct 3.0 20:02:26 10° NNW 20:06:26 78° W 20:10:25 10° S visible
05 Oct 6.0 21:39:56 10° NW 21:41:43 13° W 21:43:31 10° WSW visible
06 Oct 2.9 19:51:16 10° NNW 19:55:16 83° WSW 19:59:15 10° S visible
06 Oct 6.0 21:28:35 10° NW 21:30:36 14° W 21:32:36 10° WSW visible
07 Oct 2.8 19:40:05 10° NNW 19:44:06 89° WSW 19:48:05 10° S visible
07 Oct 6.0 21:17:16 10° NW 21:19:28 14° W 21:21:39 10° WSW visible
08 Oct 2.8 19:28:54 10° NNW 19:32:54 86° ENE 19:36:54 10° SSE visible
08 Oct 6.0 21:05:57 10° NW 21:08:19 15° W 21:10:40 10° WSW visible
09 Oct 6.0 20:54:39 10° NW 20:57:09 16° W 20:59:39 10° WSW visible
